Location: Geroldsau
(48.7259°N, 8.2466°E)
Time: 14:01:08
(UTC+00:00)

USA 307 - Pass Details

Date: 20 June 2021
Orbit: 565 x 576 km, 54.0° (Epoch: 17 July)

Event Time Altitude Azimuth Distance (km) Brightness Sun altitude
Exits shadow 00:37:18 22° 153° (SSE) 1,259 4.2 -16.2°
Maximum altitude 00:38:10 24° 134° (SE) 1,206 4.3 -16.2°
Drops below altitude 10° 00:41:34 10° 81° (E) 1,868 5.9 -16.0°
Sets 00:44:08 0° 67° (ENE) 2,767 7.0 -15.9°
